Location: Bella Coola
(52.3721°N, 126.7539°W)
Time: 05:03:12
(UTC-07:00)

Tiangong 2 - Visible Passes

Search period start: 21 May 2019 00:00
Search period end: 31 May 2019 00:00
Orbit: 379 x 387 km, 42.8° (Epoch: 21 May)

Date Brightness Start Highest point End Pass type
(mag) Time Alt. Az. Time Alt. Az. Time Alt. Az.
21 May 3.2 22:14:31 10° S 22:15:39 12° SSE 22:16:47 10° SE visible
22 May 2.9 22:49:58 10° SSW 22:51:48 15° S 22:52:18 14° SSE visible
23 May 3.3 23:26:19 10° SW 23:27:17 13° SSW 23:27:17 13° SSW visible
24 May 3.1 22:26:21 10° SW 22:28:11 15° S 22:29:57 10° SSE visible
25 May 3.3 23:03:11 10° SW 23:04:19 11° SSW 23:04:43 11° S visible
